SCP
0 0 0 0 0 0 0 0 0 0 0 0 0 -0 -0 -0 -0 0 0 0 0 0 -0 -0 0 0 0 0 0 0 0 0 0 0 0 0 0 0 0 0 0 0 0 0 0
0 0 0 0 0 0 0 0 0 0 0 0 0 -0 -0 -0 0 0 0 0 0 0 0 -0 0 0 0 0 0 0 0 0 0 0 0 -0 0 -0 0 0 0 0 0 0 0
0 0 0 0 0 0 0 -0 -0 -0 0 0 0 -0 0 -0 0 0 0 0 0 -0 0 -0 0 0 0 0 0 0 0 0 0 0 -0 -0 -0 -0 0 0 0 -0 0 0 0
0 0 0 0 0 0 -0 -0 -0 0 0 0 0 0 0 0 0 0 0 0 0 0 0 0 0 0 0 0 0 0 0 0 0 -0 0 -0 -0 0 0 0 0 0 -0 -0 -0
0 0 0 0 0 0 -0 -0 0 0 0 0 0 0 0 0 0 0 0 0 0 0 0 0 0 0 0 0 0 0 -0 0 -0 -0 -0 -0 0 0 0 0 0 0 0 0 0
0 0 0 0 0 0 0 0 0 0 0 0 0 0 0 0 0 0 0 0 0 0 0 0 0 0 0 0 -0 0 0 0 -0 -0 -0 -0 -0 0 0 0 0 0 -0 -0 0
0 0 0 0 0 0 0 0 0 0 0 0 0 0 0 0 0 0 0 0 0 0 0 0 0 0 0 0 -0 0 0 0 0 -0 -0 -0 -0 0 0 0 0 -0 0 -0 -0
0 0 0 0 0 0 0 0 0 0 0 0 0 0 0 0 0 0 0 0 0 0 0 0 0 0 0 0 0 0 0 0 0 0 0 -0 -0 -0 0 0 0 0 0 0 0
0 0 0 0 0 0 0 0 0 0 0 0 0 0 0 0 0 0 0 -0 -0 0 0 0 0 0 0 0 0 0 0 0 0 0 0 0 0 0 0 0 0 0 0 0 0
0 0 0 0 0 0 0 0 0 0 0 0 0 0 0 0 0 0 -0 -0 -0 0 0 0 0 0 0 0 0 0 0 0 0 0 0 0 0 0 0 0 0 0 0 0 0
0 0 0 0 0 0 0 0 0 0 0 0 0 0 0 0 0 0 -0 -0 0 0 0 0 0 0 0 0 0 0 0 0 0 0 0 0 0 0 0 0 0 0 0 0 0
0 0 0 0 0 0 0 0 0 0 0 0 0 0 0 0 0 0 0 -0 -0 0 0 0 0 0 0 0 0 0 0 0 0 0 0 0 0 0 0 0 0 0 0 -0 -0
0 0 0 0 0 0 0 0 0 0 0 0 0 0 0 0 0 0 0 0 0 0 0 0 0 0 0 0 0 0 0 0 0 0 0 0 0 0 0 0 0 0 0 0 0
0 0 0 0 0 0 0 0 0 0 0 0 0 0 0 0 0 0 0 -0 0 0 0 0 0 0 0 0 0 0 0 0 0 0 0 0 0 0 0 0 -0 0 0 0 0
0 0 0 0 0 0 0 0 0 0 0 0 0 0 0 0 0 0 0 -0 0 0 0 0 0 0 0 0 0 0 0 0 0 0 0 0 0 0 0 0 -0 0 0 0 0
0 0 0 0 0 0 0 0 0 0 0 0 0 0 0 0 0 0 0 0 -0 0 0 0 0 0 0 0 0 0 0 0 0 0 0 0 0 0 0 0 0 0 0 0 0
0 0 0 0 0 0 0 0 0 0 0 0 0 0 0 0 0 0 0 0 0 0 0 0 0 0 0 0 0 0 0 0 0 0 0 0 0 0 0 0 0 0 0 0 0
0 0 0 0 0 0 0 0 0 0 0 0 0 0 0 0 0 0 0 0 0 0 0 0 0 0 0 0 0 0 0 0 0 0 0 0 0 0 0 0 0 0 0 0 0
0 0 0 0 0 0 0 0 0 0 0 0 0 0 0 0 0 0 0 0 0 0 0 0 0 0 0 0 0 0 0 0 0 0 0 0 0 0 0 0 0 0 0 0 0
0 0 0 0 0 0 0 0 0 0 0 0 0 0 0 0 0 0 0 0 0 0 0 0 0 0 0 0 0 0 0 0 0 0 0 0 0 0 0 0 0 0 0 0 0
0 0 0 0 0 0 0 0 0 0 0 0 0 0 0 0 0 0 0 0 0 0 0 0 0 0 0 0 0 0 0 0 0 0 0 0 0 0 0 -0 0 0 0 0 0
0 0 0 0 0 0 0 0 0 0 0 0 0 0 0 0 0 0 0 0 0 0 0 0 0 0 0 0 0 0 0 0 0 0 0 0 0 0 0 0 -0 -0 0 0 0
0 0 0 0 0 0 0 0 0 0 0 0 0 0 0 0 0 0 0 0 0 0 0 0 0 0 0 0 0 0 0 0 0 0 0 0 0 0 0 0 0 -0 -0 -0 0
0 0 0 0 0 0 0 0 0 0 0 0 0 0 0 0 0 0 0 0 0 0 0 0 0 0 0 0 0 0 0 0 0 0 0 0 0 0 0 0 -0 -0 -0 -0 0
0 0 0 0 0 0 0 0 0 0 0 0 0 0 0 0 0 0 0 0 0 0 0 0 0 0 0 0 0 0 0 0 0 0 0 0 0 0 0 0 -0 -0 -0 -0 -0
0 0 0 0 0 0 0 0 0 0 0 0 0 0 0 0 0 0 0 0 0 0 0 0 0 0 0 0 0 0 0 0 0 -0 -0 -0 -0 -0 -0 0 0 -0 -0 -0 -0
0 0 0 0 0 0 0 0 0 0 0 0 0 0 0 0 0 0 0 0 0 0 0 0 0 0 0 0 0 0 0 0 0 0 0 0 0 0 0 0 -0 0 0 0 0
Wind_Speed_500mb
13 13 12 13 14 15 15 15 15 14 14 14 12 8 2 17 35 19 29 33 33 20 12 17 10 10 18 17 17 6 3 9 8 12 16 21 24 26 28 35 35 36 38 50 57
13 13 13 13 13 13 13 13 14 12 12 12 10 9 3 3 16 32 28 30 29 18 12 5 13 16 13 13 12 11 7 6 6 13 20 30 26 33 25 38 43 49 56 60 64
15 13 12 12 12 14 12 13 12 11 11 8 7 8 3 4 4 14 21 29 33 19 13 10 10 15 21 19 16 12 8 6 11 14 18 24 26 32 33 28 42 61 71 73 69
15 14 13 13 12 13 11 11 11 10 8 6 2 9 8 5 1 7 19 25 31 22 16 14 6 7 12 12 8 14 11 9 10 14 13 18 28 24 16 32 51 55 55 58 57
16 15 13 12 13 13 11 10 9 8 6 4 1 3 6 9 7 8 16 22 27 29 15 13 18 17 14 16 20 18 10 5 13 23 14 21 20 17 21 40 48 47 44 47 51
17 16 13 11 11 11 11 10 8 5 3 2 2 4 6 2 7 6 12 19 20 28 32 25 22 28 22 10 5 8 8 5 12 23 13 26 16 10 43 48 45 47 49 63 45
18 17 15 11 11 11 10 9 6 2 2 9 17 14 13 7 8 7 7 12 18 21 25 28 16 2 13 15 9 7 6 4 12 29 9 36 8 34 44 42 47 58 51 51 40
22 19 15 12 10 10 9 8 4 1 3 10 7 5 7 11 10 8 4 7 11 15 17 24 23 21 9 16 5 4 7 5 10 28 11 27 17 37 41 43 44 51 58 60 42
23 20 17 12 10 10 8 4 0 4 5 8 5 10 7 7 6 4 5 3 5 12 13 13 16 11 5 5 6 10 5 9 6 10 15 22 19 39 42 46 50 57 59 43 39
24 20 16 12 10 7 4 3 7 8 11 12 8 5 5 0 2 3 4 4 3 1 4 2 5 10 11 4 5 5 5 4 9 15 16 19 19 21 37 43 48 58 61 62 58
25 21 17 14 11 7 8 11 7 5 4 8 1 5 6 8 7 7 3 3 3 0 3 4 5 11 13 17 11 6 3 3 10 8 18 11 14 15 22 36 42 51 63 60 63
27 24 20 17 13 11 15 9 11 11 15 11 11 10 7 5 1 11 3 4 3 3 0 4 11 10 10 7 6 4 3 8 16 13 8 10 13 11 13 16 27 36 49 71 76
32 28 23 19 15 11 16 12 13 19 2 4 6 4 3 5 3 10 8 5 5 5 6 5 11 13 3 4 5 4 7 10 11 18 10 18 9 6 11 21 28 36 40 59 66
35 30 24 19 11 13 11 13 19 9 1 9 6 1 2 4 3 8 7 3 1 3 6 9 8 4 5 2 6 5 2 12 15 15 8 10 9 4 11 15 26 36 42 49 58
36 33 27 26 11 20 11 18 17 7 4 7 6 5 5 1 2 5 11 4 4 6 5 7 6 4 5 4 4 8 3 18 12 9 15 9 9 7 5 14 20 31 35 37 40
40 35 29 28 20 16 18 20 17 8 11 7 4 7 8 5 4 3 4 7 3 2 5 6 1 5 8 8 7 7 8 3 4 5 4 8 6 12 8 6 11 22 27 32 33
40 37 33 29 21 23 27 22 7 5 4 7 7 8 5 5 6 3 4 5 2 6 1 2 3 1 6 9 7 12 11 3 4 4 4 4 7 10 7 7 5 10 15 22 26
41 37 35 31 21 31 33 5 5 2 9 2 8 12 6 2 5 4 6 6 7 0 3 6 4 3 8 7 9 9 9 6 7 7 7 5 3 3 8 6 6 1 4 10 16
41 37 34 32 31 35 11 4 10 9 16 22 11 6 5 6 2 7 5 4 3 3 1 3 4 4 7 8 8 7 3 5 4 3 5 3 6 5 6 9 10 5 3 5 10
50 37 33 35 35 32 4 10 7 2 10 10 7 6 9 10 11 8 10 4 6 2 1 4 3 3 4 4 1 7 4 5 3 7 7 5 5 4 14 18 14 13 10 3 7
50 22 30 37 36 11 6 10 6 9 2 7 9 9 6 10 4 9 11 5 5 5 1 2 3 4 2 3 5 3 4 3 4 4 5 9 5 6 9 23 22 21 19 19 15
43 5 37 46 12 5 6 6 8 10 4 3 3 7 12 11 8 8 9 8 7 7 2 2 0 3 5 7 4 7 7 7 6 3 1 4 9 7 7 15 24 28 26 20 18
40 13 39 50 8 7 4 3 4 11 10 10 5 2 5 12 9 7 8 6 3 4 1 4 2 3 1 3 4 7 7 9 4 4 11 5 1 4 9 13 22 26 29 28 28
32 9 10 22 10 9 12 8 8 4 9 7 9 4 7 6 7 10 12 7 8 7 4 6 2 3 3 3 1 8 13 16 16 6 8 19 23 11 15 19 30 33 30 30 28
33 14 25 15 14 14 9 14 13 12 6 12 2 13 11 8 4 6 3 11 7 10 5 3 2 3 16 15 11 17 24 23 31 33 17 10 23 17 14 23 39 41 38 38 38
39 16 18 9 41 24 15 15 19 13 17 10 9 25 14 10 5 16 17 12 7 13 10 5 3 1 6 2 7 13 28 33 34 38 39 42 54 40 55 27 31 44 48 49 47
53 44 29 25 21 20 14 17 23 27 12 4 17 16 13 9 21 29 17 21 19 15 6 8 10 3 7 6 14 10 12 27 18 16 26 30 27 22 6 32 41 45 52 56 56
Wind_Direction_500mb
282 294 304 312 320 322 330 337 339 346 352 354 352 349 288 48 45 51 41 30 20 26 48 51 27 59 60 58 46 350 152 76 39 354 318 338 330 320 308 291 307 301 289 296 300
270 281 293 302 309 313 323 332 337 344 352 352 351 357 355 115 58 46 46 32 28 32 66 64 50 63 62 45 35 16 74 71 10 325 317 313 313 313 316 317 309 314 307 306 301
265 272 284 293 303 308 320 329 336 344 347 353 360 18 78 111 82 22 40 35 29 42 67 99 80 68 67 62 24 25 88 117 24 349 320 310 309 324 307 305 326 314 312 314 309
258 270 280 286 293 298 317 326 333 341 347 346 31 63 77 83 333 41 39 39 35 44 51 35 43 73 76 70 59 107 86 60 9 344 311 307 317 315 329 312 317 309 308 319 319
251 258 266 280 291 300 315 320 330 342 349 348 52 167 89 73 69 83 48 42 44 46 56 72 68 82 94 102 85 99 138 78 23 347 292 306 291 322 306 332 322 315 315 312 319
242 250 260 268 280 295 307 316 324 343 1 29 176 141 112 166 107 85 60 49 51 51 51 68 83 99 90 87 22 123 138 72 350 336 273 324 300 293 346 334 330 331 326 313 315
234 240 245 256 274 287 300 308 315 331 102 117 100 120 86 126 95 79 71 54 52 60 63 70 101 166 117 119 115 125 183 182 9 350 311 333 237 20 347 338 335 343 341 329 319
226 231 239 246 262 281 297 303 308 310 132 166 153 107 90 110 83 58 86 59 53 56 75 77 91 81 70 119 139 268 264 315 46 6 10 343 11 9 350 350 346 339 338 345 342
223 225 229 236 258 281 293 291 104 118 114 138 154 121 113 117 53 61 79 123 66 61 68 75 72 83 109 134 138 31 45 348 18 27 347 16 335 350 359 358 351 355 353 356 353
220 219 226 232 251 266 269 184 130 115 106 111 105 131 122 203 54 20 122 84 67 52 357 14 95 104 66 240 65 27 358 15 340 355 343 6 357 350 4 1 2 355 357 4 10
214 215 219 230 234 222 181 139 127 42 131 116 113 78 106 133 57 4 166 76 358 269 213 38 119 82 69 58 72 77 33 309 278 355 320 8 342 340 354 7 1 358 356 5 9
212 211 215 221 219 212 194 203 214 161 105 82 94 89 120 153 316 6 87 296 269 96 105 167 88 104 104 85 89 100 326 308 286 304 332 310 302 358 37 19 11 4 10 8 13
211 207 212 217 216 217 221 223 180 150 142 111 110 88 125 120 61 356 34 347 26 68 44 42 91 143 205 174 303 173 312 333 305 311 230 288 236 294 67 32 23 21 14 21 13
207 207 206 206 213 208 206 187 171 164 194 155 164 189 62 133 125 33 41 53 114 93 55 70 122 221 245 288 333 309 151 319 310 311 5 352 329 86 23 20 26 22 18 13 14
207 203 200 196 194 189 198 171 166 134 288 125 126 180 86 67 76 25 32 3 44 110 266 90 170 221 256 40 314 6 312 306 292 284 314 59 271 83 78 26 10 6 13 17 20
202 203 196 201 206 197 174 158 134 50 246 136 141 157 158 86 78 27 85 64 88 83 46 73 330 291 346 298 247 336 276 265 224 254 261 351 310 66 33 22 12 8 15 11 13
201 202 195 193 205 182 163 145 64 189 7 195 156 175 141 108 102 26 82 60 344 65 317 195 162 281 313 283 176 253 254 250 212 204 18 16 283 13 81 106 59 354 13 10 11
202 200 195 195 193 171 157 85 183 226 196 173 127 127 145 144 96 124 160 152 107 211 171 233 213 337 359 13 338 342 333 2 309 343 5 144 267 49 73 128 145 292 5 35 25
194 194 197 193 181 170 169 140 223 188 153 156 127 149 137 151 162 189 127 115 57 43 213 260 118 112 34 339 324 18 336 15 300 105 249 178 151 254 221 222 220 226 278 86 66
189 182 195 185 176 169 107 243 196 197 125 181 145 204 157 169 173 195 162 134 147 145 74 117 177 66 73 280 224 318 359 252 184 324 307 113 268 28 218 236 219 213 208 213 109
180 165 190 177 166 178 210 223 165 188 163 229 148 126 157 150 216 167 160 150 166 151 244 226 264 123 219 189 347 197 242 259 301 330 319 324 94 61 166 194 205 208 194 184 184
170 151 173 166 146 186 209 180 132 160 183 208 351 111 142 157 139 165 158 43 144 139 199 141 102 178 76 103 34 303 301 293 288 142 278 300 273 133 128 179 191 188 194 191 179
160 119 170 173 176 194 149 156 215 144 182 180 137 237 173 149 124 159 130 110 128 132 102 223 285 61 184 169 172 245 196 263 298 320 218 229 223 155 171 186 196 197 189 191 188
155 127 156 205 236 163 160 166 167 188 162 168 129 127 128 107 33 155 138 143 153 128 114 287 154 256 274 102 1 225 215 219 217 234 261 232 268 189 209 210 201 203 199 198 200
176 189 172 175 223 191 172 144 144 165 222 186 165 220 162 118 107 148 119 134 157 166 153 117 176 329 279 268 240 251 259 234 225 231 250 307 261 275 261 218 209 202 197 198 201
176 156 147 172 153 160 177 213 162 151 152 211 222 189 181 147 203 176 153 179 172 177 171 140 220 351 279 342 205 259 254 242 244 245 254 267 277 272 261 239 219 205 200 201 205
201 181 164 158 160 167 191 177 185 144 200 243 180 143 165 113 88 94 82 105 133 147 144 149 138 191 264 315 290 284 248 209 208 225 234 243 250 262 298 225 224 217 209 208 206
Wind_Speed_850mb
13 13 12 13 14 15 15 15 15 14 14 14 12 8 2 17 35 19 29 33 33 20 12 17 10 10 18 17 17 6 3 9 8 12 16 21 24 26 28 35 35 36 38 50 57
13 13 13 13 13 13 13 13 14 12 12 12 10 9 3 3 16 32 28 30 29 18 12 5 13 16 13 13 12 11 7 6 6 13 20 30 26 33 25 38 43 49 56 60 64
15 13 12 12 12 14 12 13 12 11 11 8 7 8 3 4 4 14 21 29 33 19 13 10 10 15 21 19 16 12 8 6 11 14 18 24 26 32 33 28 42 61 71 73 69
15 14 13 13 12 13 11 11 11 10 8 6 2 9 8 5 1 7 19 25 31 22 16 14 6 7 12 12 8 14 11 9 10 14 13 18 28 24 16 32 51 55 55 58 57
16 15 13 12 13 13 11 10 9 8 6 4 1 3 6 9 7 8 16 22 27 29 15 13 18 17 14 16 20 18 10 5 13 23 14 21 20 17 21 40 48 47 44 47 51
17 16 13 11 11 11 11 10 8 5 3 2 2 4 6 2 7 6 12 19 20 28 32 25 22 28 22 10 5 8 8 5 12 23 13 26 16 10 43 48 45 47 49 63 45
18 17 15 11 11 11 10 9 6 2 2 9 17 14 13 7 8 7 7 12 18 21 25 28 16 2 13 15 9 7 6 4 12 29 9 36 8 34 44 42 47 58 51 51 40
22 19 15 12 10 10 9 8 4 1 3 10 7 5 7 11 10 8 4 7 11 15 17 24 23 21 9 16 5 4 7 5 10 28 11 27 17 37 41 43 44 51 58 60 42
23 20 17 12 10 10 8 4 0 4 5 8 5 10 7 7 6 4 5 3 5 12 13 13 16 11 5 5 6 10 5 9 6 10 15 22 19 39 42 46 50 57 59 43 39
24 20 16 12 10 7 4 3 7 8 11 12 8 5 5 0 2 3 4 4 3 1 4 2 5 10 11 4 5 5 5 4 9 15 16 19 19 21 37 43 48 58 61 62 58
25 21 17 14 11 7 8 11 7 5 4 8 1 5 6 8 7 7 3 3 3 0 3 4 5 11 13 17 11 6 3 3 10 8 18 11 14 15 22 36 42 51 63 60 63
27 24 20 17 13 11 15 9 11 11 15 11 11 10 7 5 1 11 3 4 3 3 0 4 11 10 10 7 6 4 3 8 16 13 8 10 13 11 13 16 27 36 49 71 76
32 28 23 19 15 11 16 12 13 19 2 4 6 4 3 5 3 10 8 5 5 5 6 5 11 13 3 4 5 4 7 10 11 18 10 18 9 6 11 21 28 36 40 59 66
35 30 24 19 11 13 11 13 19 9 1 9 6 1 2 4 3 8 7 3 1 3 6 9 8 4 5 2 6 5 2 12 15 15 8 10 9 4 11 15 26 36 42 49 58
36 33 27 26 11 20 11 18 17 7 4 7 6 5 5 1 2 5 11 4 4 6 5 7 6 4 5 4 4 8 3 18 12 9 15 9 9 7 5 14 20 31 35 37 40
40 35 29 28 20 16 18 20 17 8 11 7 4 7 8 5 4 3 4 7 3 2 5 6 1 5 8 8 7 7 8 3 4 5 4 8 6 12 8 6 11 22 27 32 33
40 37 33 29 21 23 27 22 7 5 4 7 7 8 5 5 6 3 4 5 2 6 1 2 3 1 6 9 7 12 11 3 4 4 4 4 7 10 7 7 5 10 15 22 26
41 37 35 31 21 31 33 5 5 2 9 2 8 12 6 2 5 4 6 6 7 0 3 6 4 3 8 7 9 9 9 6 7 7 7 5 3 3 8 6 6 1 4 10 16
41 37 34 32 31 35 11 4 10 9 16 22 11 6 5 6 2 7 5 4 3 3 1 3 4 4 7 8 8 7 3 5 4 3 5 3 6 5 6 9 10 5 3 5 10
50 37 33 35 35 32 4 10 7 2 10 10 7 6 9 10 11 8 10 4 6 2 1 4 3 3 4 4 1 7 4 5 3 7 7 5 5 4 14 18 14 13 10 3 7
50 22 30 37 36 11 6 10 6 9 2 7 9 9 6 10 4 9 11 5 5 5 1 2 3 4 2 3 5 3 4 3 4 4 5 9 5 6 9 23 22 21 19 19 15
43 5 37 46 12 5 6 6 8 10 4 3 3 7 12 11 8 8 9 8 7 7 2 2 0 3 5 7 4 7 7 7 6 3 1 4 9 7 7 15 24 28 26 20 18
40 13 39 50 8 7 4 3 4 11 10 10 5 2 5 12 9 7 8 6 3 4 1 4 2 3 1 3 4 7 7 9 4 4 11 5 1 4 9 13 22 26 29 28 28
32 9 10 22 10 9 12 8 8 4 9 7 9 4 7 6 7 10 12 7 8 7 4 6 2 3 3 3 1 8 13 16 16 6 8 19 23 11 15 19 30 33 30 30 28
33 14 25 15 14 14 9 14 13 12 6 12 2 13 11 8 4 6 3 11 7 10 5 3 2 3 16 15 11 17 24 23 31 33 17 10 23 17 14 23 39 41 38 38 38
39 16 18 9 41 24 15 15 19 13 17 10 9 25 14 10 5 16 17 12 7 13 10 5 3 1 6 2 7 13 28 33 34 38 39 42 54 40 55 27 31 44 48 49 47
53 44 29 25 21 20 14 17 23 27 12 4 17 16 13 9 21 29 17 21 19 15 6 8 10 3 7 6 14 10 12 27 18 16 26 30 27 22 6 32 41 45 52 56 56
Wind_Direction_850mb
282 294 304 312 320 322 330 337 339 346 352 354 352 349 288 48 45 51 41 30 20 26 48 51 27 59 60 58 46 350 152 76 39 354 318 338 330 320 308 291 307 301 289 296 300
270 281 293 302 309 313 323 332 337 344 352 352 351 357 355 115 58 46 46 32 28 32 66 64 50 63 62 45 35 16 74 71 10 325 317 313 313 313 316 317 309 314 307 306 301
265 272 284 293 303 308 320 329 336 344 347 353 360 18 78 111 82 22 40 35 29 42 67 99 80 68 67 62 24 25 88 117 24 349 320 310 309 324 307 305 326 314 312 314 309
258 270 280 286 293 298 317 326 333 341 347 346 31 63 77 83 333 41 39 39 35 44 51 35 43 73 76 70 59 107 86 60 9 344 311 307 317 315 329 312 317 309 308 319 319
251 258 266 280 291 300 315 320 330 342 349 348 52 167 89 73 69 83 48 42 44 46 56 72 68 82 94 102 85 99 138 78 23 347 292 306 291 322 306 332 322 315 315 312 319
242 250 260 268 280 295 307 316 324 343 1 29 176 141 112 166 107 85 60 49 51 51 51 68 83 99 90 87 22 123 138 72 350 336 273 324 300 293 346 334 330 331 326 313 315
234 240 245 256 274 287 300 308 315 331 102 117 100 120 86 126 95 79 71 54 52 60 63 70 101 166 117 119 115 125 183 182 9 350 311 333 237 20 347 338 335 343 341 329 319
226 231 239 246 262 281 297 303 308 310 132 166 153 107 90 110 83 58 86 59 53 56 75 77 91 81 70 119 139 268 264 315 46 6 10 343 11 9 350 350 346 339 338 345 342
223 225 229 236 258 281 293 291 104 118 114 138 154 121 113 117 53 61 79 123 66 61 68 75 72 83 109 134 138 31 45 348 18 27 347 16 335 350 359 358 351 355 353 356 353
220 219 226 232 251 266 269 184 130 115 106 111 105 131 122 203 54 20 122 84 67 52 357 14 95 104 66 240 65 27 358 15 340 355 343 6 357 350 4 1 2 355 357 4 10
214 215 219 230 234 222 181 139 127 42 131 116 113 78 106 133 57 4 166 76 358 269 213 38 119 82 69 58 72 77 33 309 278 355 320 8 342 340 354 7 1 358 356 5 9
212 211 215 221 219 212 194 203 214 161 105 82 94 89 120 153 316 6 87 296 269 96 105 167 88 104 104 85 89 100 326 308 286 304 332 310 302 358 37 19 11 4 10 8 13
211 207 212 217 216 217 221 223 180 150 142 111 110 88 125 120 61 356 34 347 26 68 44 42 91 143 205 174 303 173 312 333 305 311 230 288 236 294 67 32 23 21 14 21 13
207 207 206 206 213 208 206 187 171 164 194 155 164 189 62 133 125 33 41 53 114 93 55 70 122 221 245 288 333 309 151 319 310 311 5 352 329 86 23 20 26 22 18 13 14
207 203 200 196 194 189 198 171 166 134 288 125 126 180 86 67 76 25 32 3 44 110 266 90 170 221 256 40 314 6 312 306 292 284 314 59 271 83 78 26 10 6 13 17 20
202 203 196 201 206 197 174 158 134 50 246 136 141 157 158 86 78 27 85 64 88 83 46 73 330 291 346 298 247 336 276 265 224 254 261 351 310 66 33 22 12 8 15 11 13
201 202 195 193 205 182 163 145 64 189 7 195 156 175 141 108 102 26 82 60 344 65 317 195 162 281 313 283 176 253 254 250 212 204 18 16 283 13 81 106 59 354 13 10 11
202 200 195 195 193 171 157 85 183 226 196 173 127 127 145 144 96 124 160 152 107 211 171 233 213 337 359 13 338 342 333 2 309 343 5 144 267 49 73 128 145 292 5 35 25
194 194 197 193 181 170 169 140 223 188 153 156 127 149 137 151 162 189 127 115 57 43 213 260 118 112 34 339 324 18 336 15 300 105 249 178 151 254 221 222 220 226 278 86 66
189 182 195 185 176 169 107 243 196 197 125 181 145 204 157 169 173 195 162 134 147 145 74 117 177 66 73 280 224 318 359 252 184 324 307 113 268 28 218 236 219 213 208 213 109
180 165 190 177 166 178 210 223 165 188 163 229 148 126 157 150 216 167 160 150 166 151 244 226 264 123 219 189 347 197 242 259 301 330 319 324 94 61 166 194 205 208 194 184 184
170 151 173 166 146 186 209 180 132 160 183 208 351 111 142 157 139 165 158 43 144 139 199 141 102 178 76 103 34 303 301 293 288 142 278 300 273 133 128 179 191 188 194 191 179
160 119 170 173 176 194 149 156 215 144 182 180 137 237 173 149 124 159 130 110 128 132 102 223 285 61 184 169 172 245 196 263 298 320 218 229 223 155 171 186 196 197 189 191 188
155 127 156 205 236 163 160 166 167 188 162 168 129 127 128 107 33 155 138 143 153 128 114 287 154 256 274 102 1 225 215 219 217 234 261 232 268 189 209 210 201 203 199 198 200
176 189 172 175 223 191 172 144 144 165 222 186 165 220 162 118 107 148 119 134 157 166 153 117 176 329 279 268 240 251 259 234 225 231 250 307 261 275 261 218 209 202 197 198 201
176 156 147 172 153 160 177 213 162 151 152 211 222 189 181 147 203 176 153 179 172 177 171 140 220 351 279 342 205 259 254 242 244 245 254 267 277 272 261 239 219 205 200 201 205
201 181 164 158 160 167 191 177 185 144 200 243 180 143 165 113 88 94 82 105 133 147 144 149 138 191 264 315 290 284 248 209 208 225 234 243 250 262 298 225 224 217 209 208 206